Unser Platzwetter:

(um das Bild zu aktualisieren oder bei unvollständig geladenem Bild den Reload-Button des Browsers drücken)

[Quelle: ADDS]
METAR
ETNN 310620Z AUTO 22015KT 9999 // ////// 17/11 Q1008 /// =
TAF
SR / SS: 03:59 / 19:20 UTC (Vettweiss-Soller 2021-07-31)

Aktuelle Windrichtung in Relation zu unserer Bahn:

 

Aktuelle Dichtehöhe bei uns am Platz: 1.061 ft.

PPR beachten

50 44 51 N / 06 34 01 E
525 ft
14/32 Gras 360 m
136.090 MHz
02424/901444

Kontakt:

LSG Gertrudenhof e.V.
c/o Franz-Josef Schmidt
An der Gärtnerei 13
52388 Nörvenich
02426/9593651
0175/2660491

in Lokalzeit:
05:57
21:22